Location: Krakow
(50.0212°N, 19.9423°E)
Time: 00:54:26
(UTC+02:00)

CAS-6 - Pass Details

Date: 28 April 2024
Orbit: 607 x 629 km, 97.8° (Epoch: 19 May)

Event Time Altitude Azimuth Distance (km) Brightness Sun altitude
Exits shadow 23:13:43 42° 235° (SW) 886 ? -22.9°
Maximum altitude 23:14:21 45° 261° (W) 841 ? -22.9°
Drops below altitude 10° 23:18:30 10° 335° (NNW) 1,983 ? -23.1°
Sets 23:20:46 0° 342° (NNW) 2,890 ? -23.3°
